Weather History for Olive Branch, MS

Change the Weather History Date:

Saturday, May 18, 2013

  Actual Average (KMEM) Record (KMEM)
Temperature  
Mean Temperature 72 °F 72 °F  
Max Temperature 80 °F 82 °F 93 °F (1951)
Min Temperature 64 °F 63 °F 47 °F (2002)
Degree Days  
Heating Degree Days 0 0  
Month to date heating degree days 17  
Since 1 July heating degree days 2962  
Cooling Degree Days 7 8  
Month to date cooling degree days 104  
Year to date cooling degree days 199  
Growing Degree Days 22 (Base 50)    
Moisture  
Dew Point 74 °F    
Average Humidity 98    
Maximum Humidity 100    
Minimum Humidity 89    
Precipitation  
Precipitation 0.00 in 0.16 in 2.69 in (1930)
Month to date precipitation 3.23  
Year to date precipitation 22.26  
Snow  
Snow 0.00 in 0.00 in - ()
Month to date snowfall 0.0  
Since 1 July snowfall 3.8  
Snow Depth -    
Sea Level Pressure  
Sea Level Pressure 29.96 in    
Wind  
Wind Speed 1 mph (SSE)    
Max Wind Speed 10 mph    
Max Gust Speed -    
Visibility 6 miles    
Events      
T = Trace of Precipitation, MM = Missing Value Source: NWS Daily Summary

Daily Weather History Graph

Daily Weather History Graph

Search for Another Location

Airport:

Trip Planner

Search our weather history database for the weather conditions in past years. The results will help you decide how hot, cold, wet, or windy it might be!

Date:

Astronomy

May. 18, 2013 Rise Set
Actual Time 5:53 AM CDT 7:58 PM CDT
Civil Twilight 5:25 AM CDT 8:26 PM CDT
Nautical Twilight 4:50 AM CDT 9:01 PM CDT
Astronomical Twilight 4:13 AM CDT 9:38 PM CDT
Moon 1:17 PM CDT (5/18) 1:29 AM CDT (5/18)
Length of Visible Light 15h 01m
Length of Day
14h 05m
First Quarter, 55% of the Moon is Illuminated
May 18
First Quarter
May 24
Full
May 31
Last Quarter
Jun 8
New
Jun 16
First Quarter

Hourly Weather History & Observations

Time (CDT) Temp. Heat Index Dew Point Humidity Pressure Visibility Wind Dir Wind Speed Gust Speed Precip Events Conditions
12:15 AM 66.2 °F - 66.2 °F 100% 29.97 in 10.0 mi Calm Calm - 0.00 in   Clear
12:35 AM 66.2 °F - 66.2 °F 100% 29.97 in 9.0 mi Calm Calm - 0.00 in   Clear
12:55 AM 64.4 °F - - N/A% 29.97 in 10.0 mi Calm Calm - 0.00 in   Partly Cloudy
1:15 AM 66.2 °F - - N/A% 29.96 in 6.0 mi Calm Calm - 0.00 in   Clear
1:35 AM 64.4 °F - - N/A% 29.96 in 9.0 mi Calm Calm - 0.00 in   Clear
1:55 AM 64.4 °F - - N/A% 29.95 in 6.0 mi Calm Calm - 0.00 in   Clear
2:15 AM 64.4 °F - - N/A% 29.94 in 5.0 mi Calm Calm - 0.00 in   Clear
2:35 AM 64.4 °F - - N/A% 29.94 in 5.0 mi Calm Calm - 0.00 in   Clear
2:55 AM 64.4 °F - - N/A% 29.94 in 5.0 mi Calm Calm - 0.00 in   Mostly Cloudy
3:15 AM 64.4 °F - - N/A% 29.94 in 5.0 mi Calm Calm - 0.00 in   Overcast
3:35 AM 64.4 °F - - N/A% 29.94 in 5.0 mi Calm Calm - 0.00 in   Scattered Clouds
3:55 AM 64.4 °F - - N/A% 29.95 in 6.0 mi Calm Calm - 0.00 in   Scattered Clouds
4:15 AM 64.4 °F - - N/A% 29.95 in 5.0 mi Calm Calm - 0.00 in   Scattered Clouds
4:35 AM 64.4 °F - - N/A% 29.95 in 4.0 mi Calm Calm - 0.00 in   Scattered Clouds
4:55 AM 64.4 °F - - N/A% 29.95 in 3.0 mi Calm Calm - 0.00 in   Scattered Clouds
5:15 AM 64.4 °F - - N/A% 29.96 in 3.0 mi Calm Calm - 0.00 in   Overcast
5:35 AM 64.4 °F - - N/A% 29.96 in 2.5 mi Calm Calm - 0.00 in   Overcast
5:55 AM 66.2 °F - - N/A% 29.96 in 3.0 mi Calm Calm - 0.00 in   Overcast
6:15 AM 66.2 °F - - N/A% 29.96 in 4.0 mi Calm Calm - 0.00 in   Mostly Cloudy
6:35 AM 66.2 °F - - N/A% 29.98 in 3.0 mi Calm Calm - 0.00 in   Overcast
6:50 AM 68.0 °F - 68.0 °F 100% 29.99 in 4.0 mi SSE 4.6 mph - N/A   Overcast
6:55 AM 66.2 °F - - N/A% 29.99 in 4.0 mi Calm Calm - 0.00 in   Overcast
7:55 AM 69.8 °F - 69.8 °F 100% 30.00 in 4.0 mi SSE 5.8 mph - N/A   Overcast
10:50 AM 73.4 °F - 73.4 °F 100% 30.00 in 4.0 mi WSW 8.1 mph - N/A   Overcast
11:45 AM 77.0 °F - 77.0 °F 100% 30.00 in 4.0 mi Calm Calm - N/A   Overcast
12:50 PM 78.8 °F - 77.0 °F 94% 29.99 in 7.0 mi Calm Calm - N/A   Overcast
1:50 PM 80.6 °F 88.1 °F 78.8 °F 94% 29.98 in 7.0 mi SSE 8.1 mph - N/A   Mostly Cloudy
2:50 PM 80.6 °F 88.1 °F 78.8 °F 94% 29.97 in 7.0 mi SSE 8.1 mph - N/A   Mostly Cloudy
4:50 PM 80.6 °F 87.1 °F 77.0 °F 89% 29.95 in 7.0 mi South 9.2 mph - N/A   Scattered Clouds
5:50 PM 80.6 °F 87.1 °F 77.0 °F 89% 29.95 in 8.0 mi SSW 10.4 mph - N/A   Mostly Cloudy
7:50 PM 77.0 °F - 77.0 °F 100% 29.95 in 7.0 mi Calm Calm - N/A   Mostly Cloudy
9:15 PM 77.0 °F - 77.0 °F 100% 29.94 in 7.0 mi Calm Calm - 0.00 in   Mostly Cloudy
9:35 PM 75.2 °F - 75.2 °F 100% 29.94 in 6.0 mi SSE 4.6 mph - 0.00 in   Mostly Cloudy
9:55 PM 75.2 °F - 75.2 °F 100% 29.94 in 5.0 mi SSE 3.5 mph - 0.00 in   Partly Cloudy
10:15 PM 75.2 °F - 75.2 °F 100% 29.94 in 5.0 mi Calm Calm - 0.00 in   Partly Cloudy
10:35 PM 75.2 °F - 75.2 °F 100% 29.94 in 5.0 mi SSE 3.5 mph - 0.00 in   Mostly Cloudy
10:55 PM 75.2 °F - 75.2 °F 100% 29.95 in 5.0 mi SSE 5.8 mph - 0.00 in   Mostly Cloudy
11:15 PM 75.2 °F - 75.2 °F 100% 29.95 in 5.0 mi Calm Calm - 0.00 in   Mostly Cloudy
11:35 PM 73.4 °F - 73.4 °F 100% 29.94 in 5.0 mi SE 5.8 mph - 0.00 in   Mostly Cloudy
11:55 PM 73.4 °F - 73.4 °F 100% 29.93 in 4.0 mi SE 5.8 mph - 0.00 in   Mostly Cloudy